Location: Lango�lan
(48.1202°N, 3.2340°W)
Time: 09:04:27
(UTC+00:00)

Cosmos 1610 Rocket - Pass Details

Date: 23 October 2019
Orbit: 953 x 1002 km, 82.9° (Epoch: 12 November)

Event Time Altitude Azimuth Distance (km) Brightness Sun altitude
Rises 04:23:02 0° 185° (S) 3,675 7.4 -24.1°
Reaches altitude 10° 04:25:31 10° 185° (S) 2,738 6.7 -23.7°
Maximum altitude 04:31:49 86° 99° (E) 1,004 4.5 -22.6°
Drops below altitude 10° 04:38:14 10° 10° (N) 2,782 7.1 -21.6°
Sets 04:40:47 0° 10° (N) 3,738 7.8 -21.1°
